Tracking 30995 objects as of 6-Jul-2025
HD Live streaming from Space Station
objects crossing your sky now

GAMA-ALPHA

Track GAMA-ALPHA now!
10-day predictions


NORAD ID: 55084
Int'l Code: 2023-001CD
Perigee: 411.2 km
Apogee: 420.2 km
Inclination: 97.4 °
Period: 92.7 minutes
Semi major axis: 6786 km
RCS: Unknown
Launch date: January 3, 2023
Source: Lithuania (LTU)
Launch site: AIR FORCE EASTERN TEST RANGE (AFETR)
Your satellite tracking list
FENGYUN 1C DEB
Track 1 satellite(s)




NASA's NSSDC Master Catalog

Two Line Element Set (TLE):
1 55084U 23001CD  25186.16801422  .00033384  00000-0  53880-3 0  9992
2 55084  97.3722 255.4539 0006614 218.3421 141.7362 15.52807318139541
Source of the keplerian elements: AFSPC